Location: Huesca
(42.1318°N, 0.4078°W)
Time: 09:20:24
(UTC+02:00)

CUTE 1.7 + AOD 2 - Pass Details

Date: 30 April 2024
Orbit: 569 x 587 km, 97.8° (Epoch: 20 May)

Event Time Altitude Azimuth Distance (km) Brightness Sun altitude
Rises 05:52:30 0° 8° (N) 2,782 ? -11.7°
Reaches altitude 10° 05:54:41 10° 5° (N) 1,879 ? -11.4°
Maximum altitude 05:58:40 59° 286° (WNW) 663 ? -10.7°
Drops below altitude 10° 06:02:39 10° 207° (SSW) 1,865 ? -10.1°
Enters shadow 06:02:47 - 206° (SSW) 1,922 ? -10.1°
